Flag for Greece Weather past 2 weeks in Heraklion, Crete, Greece

Now
79 °F

Clear.


Feels Like: 81 °F
Forecast: 76 / 85 °F
Wind: 13 mph from Northwest

Location: Heraklion Airport

Current Time: Jul 26, 2014 at 2:21:30 AM

Latest Report: Jul 26, 2014 at 1:50 AM


Visibility: 10 mi

Pressure: 29.80 "Hg

Humidity: 70%

Dew point: 68 °F

Location of HeraklionLocation

Historic Weather in Heraklion — Graph

°F

Heraklion temperature yesterday

Maximum temperature yesterday: 84 °F (at 5:50 PM)
Minimum temperature yesterday: 70 °F (at 5:50 AM)
Average temperature yesterday: 78 °F

Past Weeks' High & Low Weather Summary

 TemperatureHumidityPressure
High90 °F (Jul 22, 3:50 PM)94% (Jul 18, 3:50 AM)29.92 "Hg (Jul 18, 3:50 AM)
Low68 °F (Jul 13, 4:50 AM)40% (Jul 11, 1:50 PM)29.68 "Hg (Jul 11, 2:50 AM)
Average78 °F71%29.81 "Hg
* Reported Jul 11 12:20 AM — Jul 26 12:50 AM, Heraklion, Weather by CustomWeather, © 2014

Note: Actual official high and low records may vary slightly from our data, if they occured in-between our weather recording intervals... More about our weather records

Advertising

Heraklion weather history for previous 24 hours

 ConditionsComfort  
Time TempWeatherWind HumidityBarometerVisibility
12:50 AM
Jul 26
79 °FClear.16 mph70%29.80 "Hg10 mi
12:20 AM79 °FClear.15 mph70%29.80 "Hg10 mi
11:50 PM
Jul 25
79 °FClear.16 mph70%29.80 "Hg10 mi
11:20 PM77 °FClear.16 mph83%29.77 "Hg10 mi
10:50 PM77 °FClear.22 mph83%29.77 "Hg10 mi
10:20 PM77 °FClear.20 mph83%29.77 "Hg10 mi
9:50 PM77 °FClear.17 mph83%29.77 "Hg10 mi
9:20 PM79 °FSunny.14 mph84%29.77 "Hg10 mi
8:50 PM79 °FSunny.17 mph84%29.77 "Hg10 mi
8:20 PM81 °FPassing clouds.13 mph74%29.74 "HgN/A
7:50 PM81 °FPassing clouds.15 mph74%29.74 "HgN/A
7:20 PM82 °FPassing clouds.15 mph70%29.74 "HgN/A
6:50 PM82 °FPassing clouds.14 mph70%29.74 "HgN/A
6:20 PM84 °FPassing clouds.14 mph66%29.74 "HgN/A
5:50 PM84 °FPassing clouds.16 mph66%29.74 "HgN/A
5:20 PM82 °FPassing clouds.17 mph74%29.77 "HgN/A
4:50 PM82 °FPassing clouds.20 mph74%29.77 "HgN/A
4:20 PM82 °FPassing clouds.17 mph74%29.77 "HgN/A
3:50 PM82 °FPassing clouds.18 mph74%29.77 "HgN/A
3:20 PM82 °FPassing clouds.18 mph66%29.77 "HgN/A
2:50 PM82 °FPassing clouds.17 mph66%29.77 "HgN/A
2:20 PM82 °FPassing clouds.17 mph70%29.77 "HgN/A
1:50 PM82 °FPassing clouds.16 mph70%29.77 "HgN/A
1:20 PM82 °FPassing clouds.17 mph70%29.77 "HgN/A
12:50 PM82 °FPassing clouds.16 mph70%29.77 "HgN/A
12:20 PM82 °FPassing clouds.15 mph70%29.77 "HgN/A
11:50 AM82 °FPassing clouds.14 mph70%29.77 "HgN/A
11:20 AM81 °FPassing clouds.13 mph62%29.77 "HgN/A
10:50 AM81 °FSunny.13 mph62%29.77 "Hg10 mi
10:20 AM79 °FSunny.14 mph70%29.77 "Hg10 mi
9:50 AM79 °FSunny.7 mph70%29.77 "Hg10 mi
9:20 AM77 °FSunny.6 mph69%29.77 "Hg10 mi
8:50 AM77 °FSunny.3 mph69%29.77 "Hg10 mi
8:20 AM75 °FSunny.6 mph74%29.77 "Hg10 mi
7:20 AM70 °FClear.5 mph88%29.74 "Hg10 mi
6:50 AM70 °FPassing clouds.5 mph88%29.74 "HgN/A
6:20 AM70 °FPassing clouds.6 mph88%29.74 "HgN/A
5:50 AM70 °FPassing clouds.3 mph88%29.74 "HgN/A
5:20 AM72 °FPassing clouds.3 mph83%29.77 "HgN/A
4:50 AM72 °FPassing clouds.5 mph83%29.77 "HgN/A
4:20 AM72 °FPassing clouds.6 mph83%29.74 "HgN/A
3:50 AM75 °FPassing clouds.3 mph89%29.74 "HgN/A
3:20 AM75 °FPassing clouds.5 mph89%29.74 "HgN/A
2:50 AM75 °FPassing clouds.5 mph89%29.74 "HgN/A
2:20 AM75 °FPassing clouds.5 mph89%29.77 "HgN/A
Weather by CustomWeather, © 2014

See weather overviewHow to use our weather pages